,,,PA_Meas_PMT16A,,PR_Meas_QMR101_102,,RH_Meas_QMH101,,SR_Meas_QMS101,,TA_Meas_QMH101,,GenWind,,GenWind,
date,time,status,PA,status,PR,status,RH,status,SR,status,TA,status,DirAvg,status,SpdAvg,
2009-09-24, 00:00:04,VALID,1004.31,VALID,0,VALID,82.1707,VALID,0,VALID,26.7589,VALID,107,VALID,0.852734,
2009-09-24, 00:01:04,VALID,1004.29,VALID,0,VALID,82.0944,VALID,0,VALID,26.7589,VALID,73,VALID,0.873047,
2009-09-24, 00:02:04,VALID,1004.28,VALID,0,VALID,82.2012,VALID,0,VALID,26.7589,VALID,72,VALID,0.371094,
2009-09-24, 00:03:04,VALID,1004.25,VALID,0,VALID,82.0486,VALID,0,VALID,26.7609,VALID,69,VALID,0.679297,
2009-09-24, 00:04:04,VALID,1004.25,VALID,0,VALID,81.6519,VALID,0,VALID,26.7998,VALID,93,VALID,0.928906,
2009-09-24, 00:05:04,VALID,1004.22,VALID,0,VALID,81.5909,VALID,0,VALID,26.7978,VALID,123,VALID,1.74453,
2009-09-24, 00:06:04,VALID,1004.19,VALID,0,VALID,81.7587,VALID,0,VALID,26.8173,VALID,89,VALID,0.643359,
2009-09-24, 00:07:04,VALID,1004.17,VALID,0,VALID,81.2552,VALID,0,VALID,26.8388,VALID,108,VALID,1.57852,
2009-09-24, 00:08:04,VALID,1004.17,VALID,0,VALID,81.2934,VALID,0,VALID,26.8368,VALID,100,VALID,0.958594,
2009-09-24, 00:09:04,VALID,1004.17,VALID,0,VALID,81.507,VALID,0,VALID,26.8173,VALID,95,VALID,0.605078,
2009-09-24, 00:10:04,VALID,1004.16,VALID,0,VALID,81.8655,VALID,0,VALID,26.7998,VALID,94,VALID,0.382422,
2009-09-24, 00:11:04,VALID,1004.15,VALID,0,VALID,81.774,VALID,0,VALID,26.7394,VALID,94,VALID,0.646094,
2009-09-24, 00:12:04,VALID,1004.18,VALID,0,VALID,82.2317,VALID,0,VALID,26.7219,VALID,92,VALID,0.520312,
2009-09-24, 00:13:04,VALID,1004.19,VALID,0,VALID,82.0791,VALID,0,VALID,26.7004,VALID,92,VALID,0.190625,
2009-09-24, 00:14:04,VALID,1004.15,VALID,0,VALID,82.2164,VALID,0,VALID,26.6614,VALID,92,VALID,0.220703,
2009-09-24, 00:15:04,VALID,1004.17,VALID,0,VALID,82.1173,VALID,0,VALID,26.6614,VALID,81,VALID,0.952344,
2009-09-24, 00:16:04,VALID,1004.17,VALID,0,VALID,81.5909,VALID,0,VALID,26.7219,VALID,138,VALID,2.06641,
2009-09-24, 00:17:04,VALID,1004.19,VALID,0,VALID,81.9494,VALID,0,VALID,26.7589,VALID,64,VALID,0.507813,
2009-09-24, 00:18:04,VALID,1004.18,VALID,0,VALID,81.9189,VALID,0,VALID,26.7394,VALID,64,VALID,0.260547,
2009-09-24, 00:19:04,VALID,1004.19,VALID,0,VALID,82.1325,VALID,0,VALID,26.7414,VALID,56,VALID,0.363281,
2009-09-24, 00:20:04,VALID,1004.19,VALID,0,VALID,81.8731,VALID,0,VALID,26.6809,VALID,88,VALID,0.305469,
2009-09-24, 00:21:04,VALID,1004.16,VALID,0,VALID,82.2164,VALID,0.100563,VALID,26.6614,VALID,86,VALID,0.293359,
2009-09-24, 00:22:04,VALID,1004.16,VALID,0,VALID,82.2775,VALID,0,VALID,26.644,VALID,86,VALID,0.269922,
2009-09-24, 00:23:04,VALID,1004.11,VALID,0,VALID,82.7505,VALID,0,VALID,26.6245,VALID,86,VALID,0,
2009-09-24, 00:24:04,VALID,1004.1,VALID,0,VALID,82.987,VALID,0.100563,VALID,26.5446,VALID,54,VALID,0.451172,
2009-09-24, 00:25:04,VALID,1004.08,VALID,0,VALID,83.0098,VALID,0,VALID,26.5056,VALID,54,VALID,0.127344,
2009-09-24, 00:26:04,VALID,1004.06,VALID,0,VALID,83.1395,VALID,0,VALID,26.4667,VALID,54,VALID,0.239063,
2009-09-24, 00:27:04,VALID,1004.02,VALID,0,VALID,83.0861,VALID,0,VALID,26.4472,VALID,53,VALID,0.247656,
2009-09-24, 00:28:04,VALID,1004.01,VALID,0,VALID,83.2082,VALID,0,VALID,26.4277,VALID,53,VALID,0.307031,
2009-09-24, 00:29:04,VALID,1003.99,VALID,0,VALID,83.1472,VALID,0,VALID,26.4297,VALID,53,VALID,0.394922,
2009-09-24, 00:30:04,VALID,1003.97,VALID,0,VALID,83.2769,VALID,0,VALID,26.3887,VALID,72,VALID,0.255859,
2009-09-24, 00:31:04,VALID,1003.96,VALID,0,VALID,83.582,VALID,0,VALID,26.3693,VALID,72,VALID,0.184375,
2009-09-24, 00:32:04,VALID,1003.97,VALID,0,VALID,83.727,VALID,0,VALID,26.3713,VALID,72,VALID,0.167578,
2009-09-24, 00:33:04,VALID,1003.93,VALID,0,VALID,83.5973,VALID,0,VALID,26.3518,VALID,72,VALID,0.678125,
2009-09-24, 00:34:04,VALID,1003.93,VALID,0,VALID,83.7498,VALID,0.100563,VALID,26.3303,VALID,65,VALID,0.321094,
2009-09-24, 00:35:04,VALID,1003.91,VALID,0,VALID,83.8643,VALID,0,VALID,26.3518,VALID,77,VALID,0.314453,
2009-09-24, 00:36:04,VALID,1003.91,VALID,0,VALID,83.8338,VALID,0,VALID,26.3303,VALID,75,VALID,0.624219,
2009-09-24, 00:37:04,VALID,1003.89,VALID,0,VALID,83.9329,VALID,0,VALID,26.3108,VALID,103,VALID,0.446484,
2009-09-24, 00:38:04,VALID,1003.87,VALID,0,VALID,83.8795,VALID,0,VALID,26.3303,VALID,91,VALID,0.532031,
2009-09-24, 00:39:04,VALID,1003.85,VALID,0,VALID,84.116,VALID,0,VALID,26.3323,VALID,79,VALID,0.328906,
2009-09-24, 00:40:04,VALID,1003.85,VALID,0,VALID,83.9177,VALID,0,VALID,26.3323,VALID,77,VALID,0.391406,
2009-09-24, 00:41:04,VALID,1003.86,VALID,0,VALID,84.1008,VALID,0.100563,VALID,26.2913,VALID,73,VALID,0.256641,
2009-09-24, 00:42:04,VALID,1003.84,VALID,0,VALID,84.2,VALID,0.100563,VALID,26.2933,VALID,75,VALID,0.284766,
2009-09-24, 00:43:04,VALID,1003.86,VALID,0,VALID,84.5814,VALID,0,VALID,26.2739,VALID,83,VALID,0.219531,
2009-09-24, 00:44:04,VALID,1003.84,VALID,0,VALID,84.4822,VALID,0,VALID,26.2544,VALID,62,VALID,0.458203,
2009-09-24, 00:45:04,VALID,1003.88,VALID,0,VALID,84.3296,VALID,0,VALID,26.2134,VALID,68,VALID,0.477344,
2009-09-24, 00:46:04,VALID,1003.85,VALID,0,VALID,84.4975,VALID,0,VALID,26.2544,VALID,72,VALID,0.176172,
2009-09-24, 00:47:04,VALID,1003.88,VALID,0,VALID,84.3754,VALID,0,VALID,26.2544,VALID,49,VALID,0.569922,
2009-09-24, 00:48:04,VALID,1003.86,VALID,0,VALID,84.467,VALID,0,VALID,26.2524,VALID,33,VALID,0,
2009-09-24, 00:49:04,VALID,1003.83,VALID,0,VALID,84.2686,VALID,0,VALID,26.2739,VALID,40,VALID,0.573438,
2009-09-24, 00:50:04,VALID,1003.82,VALID,0,VALID,84.9781,VALID,0,VALID,26.2933,VALID,33,VALID,0.554688,
2009-09-24, 00:51:04,VALID,1003.79,VALID,0,VALID,84.9628,VALID,0,VALID,26.2154,VALID,27,VALID,0.274609,
2009-09-24, 00:52:04,VALID,1003.77,VALID,0,VALID,84.9552,VALID,0,VALID,26.194,VALID,27,VALID,0.00117188,
2009-09-24, 00:53:04,VALID,1003.79,VALID,0,VALID,85.062,VALID,0,VALID,26.1355,VALID,84,VALID,0.773047,
2009-09-24, 00:54:04,VALID,1003.78,VALID,0,VALID,85.4435,VALID,0,VALID,26.155,VALID,83,VALID,0.0394531,
2009-09-24, 00:55:04,VALID,1003.76,VALID,0,VALID,85.2909,VALID,0.100563,VALID,26.155,VALID,83,VALID,0.0984375,
2009-09-24, 00:56:04,VALID,1003.75,VALID,0,VALID,85.1688,VALID,0,VALID,26.1765,VALID,69,VALID,0.432031,
2009-09-24, 00:57:04,VALID,1003.72,VALID,0,VALID,84.9476,VALID,0,VALID,26.194,VALID,113,VALID,0.386328,
2009-09-24, 00:58:04,VALID,1003.73,VALID,0,VALID,84.9323,VALID,0,VALID,26.2544,VALID,51,VALID,0.483594,
2009-09-24, 00:59:04,VALID,1003.74,VALID,0,VALID,84.7569,VALID,0,VALID,26.3128,VALID,87,VALID,0.561328,
2009-09-24, 01:00:04,VALID,1003.71,VALID,0,VALID,84.5814,VALID,0,VALID,26.3323,VALID,87,VALID,0.224219,
2009-09-24, 01:01:04,VALID,1003.68,VALID,0,VALID,84.8789,VALID,0,VALID,26.3498,VALID,103,VALID,0.635547,
2009-09-24, 01:02:04,VALID,1003.67,VALID,0,VALID,84.7721,VALID,0,VALID,26.3907,VALID,99,VALID,0.615234,
2009-09-24, 01:03:04,VALID,1003.65,VALID,0,VALID,84.6729,VALID,0,VALID,26.4102,VALID,107,VALID,0.439063,
2009-09-24, 01:04:04,VALID,1003.66,VALID,0,VALID,84.4593,VALID,0,VALID,26.4297,VALID,326,VALID,0.203516,
2009-09-24, 01:05:04,VALID,1003.65,VALID,0,VALID,84.4212,VALID,0,VALID,26.4277,VALID,326,VALID,0.283203,
2009-09-24, 01:06:04,VALID,1003.62,VALID,0,VALID,84.6424,VALID,0,VALID,26.4492,VALID,326,VALID,0.2,
2009-09-24, 01:07:04,VALID,1003.59,VALID,0,VALID,84.8179,VALID,0,VALID,26.4492,VALID,326,VALID,0.435156,
2009-09-24, 01:08:04,VALID,1003.61,VALID,0,VALID,85.001,VALID,0,VALID,26.4297,VALID,346,VALID,0.389844,
2009-09-24, 01:09:04,VALID,1003.59,VALID,0,VALID,84.8789,VALID,0,VALID,26.3887,VALID,25,VALID,0.258203,
2009-09-24, 01:10:04,VALID,1003.56,VALID,0,VALID,85.2604,VALID,0,VALID,26.3693,VALID,90,VALID,0.264062,
2009-09-24, 01:11:04,VALID,1003.57,VALID,0,VALID,85.2299,VALID,0,VALID,26.3713,VALID,90,VALID,0.2625,
2009-09-24, 01:12:04,VALID,1003.57,VALID,0,VALID,85.2604,VALID,0,VALID,26.3518,VALID,93,VALID,0.308594,
2009-09-24, 01:13:04,VALID,1003.57,VALID,0,VALID,85.1002,VALID,0,VALID,26.3518,VALID,93,VALID,0.427344,
2009-09-24, 01:14:04,VALID,1003.57,VALID,0,VALID,85.1841,VALID,0,VALID,26.3518,VALID,93,VALID,0.182422,
2009-09-24, 01:15:04,VALID,1003.56,VALID,0,VALID,85.1612,VALID,0,VALID,26.3907,VALID,97,VALID,0.354688,
2009-09-24, 01:16:04,VALID,1003.55,VALID,0,VALID,85.123,VALID,0,VALID,26.4102,VALID,108,VALID,0.540625,
2009-09-24, 01:17:04,VALID,1003.55,VALID,0,VALID,84.9171,VALID,0,VALID,26.4297,VALID,108,VALID,0.399609,
2009-09-24, 01:18:04,VALID,1003.53,VALID,0,VALID,84.8255,VALID,0,VALID,26.4102,VALID,70,VALID,0.623438,
2009-09-24, 01:19:04,VALID,1003.53,VALID,0,VALID,84.8484,VALID,0.100563,VALID,26.4277,VALID,64,VALID,0.362891,
2009-09-24, 01:20:04,VALID,1003.5,VALID,0,VALID,84.8789,VALID,0,VALID,26.4297,VALID,65,VALID,0.469141,
2009-09-24, 01:21:04,VALID,1003.49,VALID,0,VALID,84.7797,VALID,0,VALID,26.4277,VALID,65,VALID,0.119922,
2009-09-24, 01:22:04,VALID,1003.49,VALID,0,VALID,84.8332,VALID,0,VALID,26.4277,VALID,90,VALID,0.634375,
2009-09-24, 01:23:04,VALID,1003.45,VALID,0,VALID,84.9552,VALID,0,VALID,26.4492,VALID,64,VALID,0.470703,
2009-09-24, 01:24:04,VALID,1003.44,VALID,0,VALID,85.0696,VALID,0,VALID,26.4492,VALID,61,VALID,0.477344,
2009-09-24, 01:25:04,VALID,1003.43,VALID,0,VALID,85.1612,VALID,0,VALID,26.4082,VALID,66,VALID,0.464844,
2009-09-24, 01:26:04,VALID,1003.46,VALID,0,VALID,85.207,VALID,0,VALID,26.4297,VALID,76,VALID,0.467969,
2009-09-24, 01:27:04,VALID,1003.45,VALID,0,VALID,85.1917,VALID,0,VALID,26.3887,VALID,76,VALID,0.207813,
2009-09-24, 01:28:04,VALID,1003.46,VALID,0,VALID,85.1536,VALID,0,VALID,26.4082,VALID,87,VALID,0.591016,
2009-09-24, 01:29:04,VALID,1003.44,VALID,0,VALID,85.1307,VALID,0,VALID,26.4277,VALID,103,VALID,0.344922,
2009-09-24, 01:30:04,VALID,1003.44,VALID,0,VALID,85.1612,VALID,0,VALID,26.4687,VALID,104,VALID,0.337109,
2009-09-24, 01:31:04,VALID,1003.46,VALID,0,VALID,85.0468,VALID,0,VALID,26.4472,VALID,104,VALID,0.20625,
2009-09-24, 01:32:04,VALID,1003.42,VALID,0,VALID,85.2299,VALID,0,VALID,26.4472,VALID,104,VALID,0.269531,
2009-09-24, 01:33:04,VALID,1003.43,VALID,0,VALID,85.0391,VALID,0,VALID,26.4492,VALID,86,VALID,0.467578,
2009-09-24, 01:34:04,VALID,1003.47,VALID,0,VALID,85.001,VALID,0,VALID,26.4667,VALID,88,VALID,0.733594,
2009-09-24, 01:35:04,VALID,1003.45,VALID,0,VALID,84.9171,VALID,0,VALID,26.5076,VALID,88,VALID,0.45,
2009-09-24, 01:36:04,VALID,1003.43,VALID,0,VALID,84.94,VALID,0,VALID,26.5291,VALID,87,VALID,0.317969,
2009-09-24, 01:37:04,VALID,1003.44,VALID,0,VALID,84.8866,VALID,0,VALID,26.5271,VALID,72,VALID,0.492969,
2009-09-24, 01:38:04,VALID,1003.44,VALID,0,VALID,84.9705,VALID,0,VALID,26.4667,VALID,71,VALID,0.314063,
2009-09-24, 01:39:04,VALID,1003.44,VALID,0,VALID,85.0391,VALID,0,VALID,26.4861,VALID,74,VALID,0.359375,
2009-09-24, 01:40:04,VALID,1003.44,VALID,0,VALID,85.1154,VALID,0,VALID,26.4687,VALID,80,VALID,0.346484,
2009-09-24, 01:41:04,VALID,1003.44,VALID,0,VALID,85.2299,VALID,0,VALID,26.4297,VALID,71,VALID,0.894922,
2009-09-24, 01:42:04,VALID,1003.47,VALID,0,VALID,85.4053,VALID,0,VALID,26.4492,VALID,71,VALID,0.230078,
2009-09-24, 01:43:04,VALID,1003.44,VALID,0,VALID,85.3519,VALID,0,VALID,26.4492,VALID,74,VALID,0.472656,
2009-09-24, 01:44:04,VALID,1003.45,VALID,0,VALID,85.6113,VALID,0,VALID,26.4472,VALID,83,VALID,0.232812,
2009-09-24, 01:45:04,VALID,1003.45,VALID,0,VALID,85.5579,VALID,0,VALID,26.4492,VALID,83,VALID,0.0375,
2009-09-24, 01:46:04,VALID,1003.42,VALID,0,VALID,85.741,VALID,0,VALID,26.4102,VALID,83,VALID,0.112109,
2009-09-24, 01:47:04,VALID,1003.43,VALID,0,VALID,85.8783,VALID,0,VALID,26.3713,VALID,93,VALID,0.682422,
2009-09-24, 01:48:04,VALID,1003.42,VALID,0,VALID,85.9699,VALID,0,VALID,26.3713,VALID,88,VALID,0.630469,
2009-09-24, 01:49:04,VALID,1003.45,VALID,0,VALID,85.8936,VALID,0,VALID,26.4082,VALID,88,VALID,0.5875,
2009-09-24, 01:50:04,VALID,1003.41,VALID,0,VALID,85.9241,VALID,0,VALID,26.3887,VALID,96,VALID,0.362109,
2009-09-24, 01:51:04,VALID,1003.41,VALID,0,VALID,85.9165,VALID,0,VALID,26.4102,VALID,96,VALID,0.322266,
2009-09-24, 01:52:04,VALID,1003.41,VALID,0,VALID,86.1682,VALID,0,VALID,26.3907,VALID,91,VALID,0.460156,
2009-09-24, 01:53:04,VALID,1003.43,VALID,0,VALID,86.275,VALID,0,VALID,26.3518,VALID,90,VALID,0.532422,
2009-09-24, 01:54:04,VALID,1003.41,VALID,0,VALID,86.336,VALID,0,VALID,26.3323,VALID,90,VALID,0.0816406,
2009-09-24, 01:55:04,VALID,1003.43,VALID,0,VALID,86.542,VALID,0,VALID,26.3128,VALID,90,VALID,0.108594,
2009-09-24, 01:56:04,VALID,1003.45,VALID,0,VALID,86.6107,VALID,0,VALID,26.2913,VALID,90,VALID,0.208594,
2009-09-24, 01:57:04,VALID,1003.45,VALID,0,VALID,86.687,VALID,0,VALID,26.3128,VALID,91,VALID,0.192969,
2009-09-24, 01:58:04,VALID,1003.46,VALID,0,VALID,86.7404,VALID,0,VALID,26.2933,VALID,85,VALID,0.438281,
2009-09-24, 01:59:04,VALID,1003.42,VALID,0,VALID,86.8929,VALID,0,VALID,26.2913,VALID,85,VALID,0.101563,
2009-09-24, 02:00:04,VALID,1003.42,VALID,0,VALID,86.9311,VALID,0,VALID,26.3128,VALID,85,VALID,0.201172,
2009-09-24, 02:01:04,VALID,1003.39,VALID,0,VALID,86.8319,VALID,0,VALID,26.3323,VALID,72,VALID,0.515625,
2009-09-24, 02:02:04,VALID,1003.38,VALID,0,VALID,86.8777,VALID,0,VALID,26.3128,VALID,73,VALID,0.0867188,
2009-09-24, 02:03:04,VALID,1003.38,VALID,0,VALID,86.809,VALID,0,VALID,26.2913,VALID,73,VALID,0.185547,
2009-09-24, 02:04:04,VALID,1003.39,VALID,0,VALID,86.8701,VALID,0,VALID,26.3128,VALID,71,VALID,0.346094,
2009-09-24, 02:05:04,VALID,1003.38,VALID,0,VALID,86.954,VALID,0,VALID,26.2913,VALID,71,VALID,0.264062,
2009-09-24, 02:06:04,VALID,1003.36,VALID,0,VALID,86.8853,VALID,0,VALID,26.3128,VALID,63,VALID,0.620313,
2009-09-24, 02:07:04,VALID,1003.4,VALID,0,VALID,86.9998,VALID,0,VALID,26.2913,VALID,87,VALID,0.704297,
2009-09-24, 02:08:04,VALID,1003.4,VALID,0,VALID,87.1676,VALID,0,VALID,26.3128,VALID,104,VALID,0.442578,
2009-09-24, 02:09:04,VALID,1003.38,VALID,0,VALID,87.0837,VALID,0,VALID,26.3128,VALID,96,VALID,0.263672,
2009-09-24, 02:10:04,VALID,1003.36,VALID,0,VALID,87.0455,VALID,0,VALID,26.3108,VALID,74,VALID,0.407813,
2009-09-24, 02:11:04,VALID,1003.37,VALID,0,VALID,86.9692,VALID,0,VALID,26.3108,VALID,58,VALID,0.421875,
2009-09-24, 02:12:04,VALID,1003.39,VALID,0,VALID,86.9998,VALID,0,VALID,26.3498,VALID,73,VALID,0.535547,
2009-09-24, 02:13:04,VALID,1003.35,VALID,0,VALID,87.0532,VALID,0,VALID,26.3518,VALID,73,VALID,0.333203,
2009-09-24, 02:14:04,VALID,1003.34,VALID,0,VALID,87.16,VALID,0,VALID,26.3303,VALID,89,VALID,0.686719,
2009-09-24, 02:15:04,VALID,1003.34,VALID,0,VALID,87.2896,VALID,0,VALID,26.3713,VALID,112,VALID,0.48125,
2009-09-24, 02:16:04,VALID,1003.33,VALID,0,VALID,87.2668,VALID,0,VALID,26.3713,VALID,90,VALID,0.169531,
2009-09-24, 02:17:04,VALID,1003.31,VALID,0,VALID,87.2439,VALID,0.100563,VALID,26.4082,VALID,92,VALID,0.696094,
2009-09-24, 02:18:04,VALID,1003.29,VALID,0,VALID,87.076,VALID,0.100563,VALID,26.4492,VALID,99,VALID,0.972656,
2009-09-24, 02:19:04,VALID,1003.31,VALID,0,VALID,86.748,VALID,0,VALID,26.5271,VALID,149,VALID,1.68242,
2009-09-24, 02:20:04,VALID,1003.35,VALID,0,VALID,86.1606,VALID,0,VALID,26.6614,VALID,116,VALID,1.28789,
2009-09-24, 02:21:04,VALID,1003.33,VALID,0,VALID,85.7715,VALID,0,VALID,26.7609,VALID,106,VALID,1.39844,
2009-09-24, 02:22:04,VALID,1003.32,VALID,0,VALID,85.5045,VALID,0,VALID,26.8388,VALID,102,VALID,0.823047,
2009-09-24, 02:23:04,VALID,1003.33,VALID,0,VALID,85.4663,VALID,0,VALID,26.8973,VALID,101,VALID,1.24805,
2009-09-24, 02:24:04,VALID,1003.31,VALID,0,VALID,85.1612,VALID,0,VALID,26.9147,VALID,102,VALID,0.382422,
2009-09-24, 02:25:04,VALID,1003.3,VALID,0,VALID,85.1002,VALID,0,VALID,26.9557,VALID,118,VALID,1.36953,
2009-09-24, 02:26:04,VALID,1003.32,VALID,0,VALID,84.9323,VALID,0,VALID,26.9557,VALID,76,VALID,0.825391,
2009-09-24, 02:27:04,VALID,1003.32,VALID,0,VALID,84.8637,VALID,0,VALID,26.9752,VALID,109,VALID,1.51563,
2009-09-24, 02:28:04,VALID,1003.35,VALID,0,VALID,84.8484,VALID,0,VALID,27.0357,VALID,132,VALID,1.79883,
2009-09-24, 02:29:04,VALID,1003.35,VALID,0,VALID,84.589,VALID,0,VALID,27.0921,VALID,134,VALID,1.49141,
2009-09-24, 02:30:04,VALID,1003.31,VALID,0,VALID,84.4136,VALID,0.100563,VALID,27.1311,VALID,109,VALID,0.778516,
2009-09-24, 02:31:04,VALID,1003.33,VALID,0,VALID,84.3678,VALID,0,VALID,27.1311,VALID,114,VALID,1.16875,
2009-09-24, 02:32:04,VALID,1003.31,VALID,0,VALID,84.589,VALID,0,VALID,27.1095,VALID,102,VALID,0.916016,
2009-09-24, 02:33:04,VALID,1003.32,VALID,0,VALID,84.5967,VALID,0,VALID,27.1311,VALID,113,VALID,0.750781,
2009-09-24, 02:34:04,VALID,1003.29,VALID,0,VALID,84.7416,VALID,0,VALID,27.0921,VALID,117,VALID,0.812109,
2009-09-24, 02:35:04,VALID,1003.32,VALID,0,VALID,84.5661,VALID,0,VALID,27.09,VALID,127,VALID,1.65469,
2009-09-24, 02:36:04,VALID,1003.29,VALID,0,VALID,84.3678,VALID,0,VALID,27.1116,VALID,134,VALID,1.64961,
2009-09-24, 02:37:04,VALID,1003.3,VALID,0,VALID,84.2762,VALID,0.100563,VALID,27.1311,VALID,114,VALID,2.02422,
2009-09-24, 02:38:04,VALID,1003.29,VALID,0,VALID,84.2457,VALID,0,VALID,27.1311,VALID,124,VALID,1.55156,
2009-09-24, 02:39:04,VALID,1003.26,VALID,0,VALID,84.2991,VALID,0,VALID,27.09,VALID,143,VALID,1.1582,
2009-09-24, 02:40:04,VALID,1003.27,VALID,0,VALID,84.0703,VALID,0,VALID,27.1311,VALID,99,VALID,1.74063,
2009-09-24, 02:41:04,VALID,1003.27,VALID,0,VALID,84.1694,VALID,0,VALID,27.1311,VALID,130,VALID,1.74805,
2009-09-24, 02:42:04,VALID,1003.26,VALID,0,VALID,84.0321,VALID,0,VALID,27.1095,VALID,123,VALID,1.56133,
2009-09-24, 02:43:04,VALID,1003.28,VALID,0,VALID,83.9635,VALID,0,VALID,27.1311,VALID,112,VALID,1.2793,
2009-09-24, 02:44:04,VALID,1003.26,VALID,0,VALID,84.1389,VALID,0,VALID,27.09,VALID,123,VALID,0.676172,
2009-09-24, 02:45:04,VALID,1003.25,VALID,0,VALID,83.9635,VALID,0,VALID,27.09,VALID,108,VALID,1.32813,
2009-09-24, 02:46:04,VALID,1003.25,VALID,0,VALID,84.0703,VALID,0,VALID,27.1311,VALID,120,VALID,1.20742,
2009-09-24, 02:47:04,VALID,1003.24,VALID,0,VALID,83.9329,VALID,0,VALID,27.09,VALID,118,VALID,1.33633,
2009-09-24, 02:48:04,VALID,1003.25,VALID,0,VALID,84.0626,VALID,0,VALID,27.0726,VALID,130,VALID,1.1418,
2009-09-24, 02:49:04,VALID,1003.28,VALID,0,VALID,84.0016,VALID,0,VALID,27.0531,VALID,114,VALID,1.65625,
2009-09-24, 02:50:04,VALID,1003.28,VALID,0,VALID,83.9711,VALID,0,VALID,27.0921,VALID,117,VALID,1.93555,
2009-09-24, 02:51:04,VALID,1003.27,VALID,0,VALID,83.9406,VALID,0,VALID,27.09,VALID,112,VALID,1.72773,
2009-09-24, 02:52:04,VALID,1003.27,VALID,0,VALID,83.9711,VALID,0,VALID,27.0726,VALID,119,VALID,1.56016,
2009-09-24, 02:53:04,VALID,1003.31,VALID,0,VALID,83.9024,VALID,0,VALID,27.0726,VALID,137,VALID,1.04961,
2009-09-24, 02:54:04,VALID,1003.3,VALID,0,VALID,83.8185,VALID,0,VALID,27.0531,VALID,102,VALID,1.58516,
2009-09-24, 02:55:04,VALID,1003.29,VALID,0,VALID,83.9406,VALID,0,VALID,27.0726,VALID,126,VALID,1.16094,
2009-09-24, 02:56:04,VALID,1003.3,VALID,0,VALID,84.1313,VALID,0,VALID,27.0531,VALID,128,VALID,1.26055,
2009-09-24, 02:57:04,VALID,1003.25,VALID,0,VALID,83.8185,VALID,0,VALID,27.0531,VALID,115,VALID,2.58477,
2009-09-24, 02:58:04,VALID,1003.3,VALID,0,VALID,83.9787,VALID,0,VALID,27.0552,VALID,135,VALID,1.1043,
2009-09-24, 02:59:04,VALID,1003.28,VALID,0,VALID,84.0703,VALID,0,VALID,27.0531,VALID,123,VALID,1.5375,
2009-09-24, 03:00:04,VALID,1003.28,VALID,0,VALID,83.9787,VALID,0,VALID,27.0336,VALID,113,VALID,1.38242,
2009-09-24, 03:01:04,VALID,1003.28,VALID,0,VALID,84.116,VALID,0,VALID,27.0336,VALID,130,VALID,1.56289,
2009-09-24, 03:02:04,VALID,1003.28,VALID,0,VALID,84.0703,VALID,0,VALID,26.9926,VALID,115,VALID,2.08164,
2009-09-24, 03:03:04,VALID,1003.26,VALID,0,VALID,84.1084,VALID,0,VALID,27.0142,VALID,100,VALID,1.53555,
2009-09-24, 03:04:04,VALID,1003.26,VALID,0,VALID,84.0855,VALID,0,VALID,27.0142,VALID,119,VALID,1.38945,
2009-09-24, 03:05:04,VALID,1003.25,VALID,0,VALID,84.1389,VALID,0,VALID,27.0336,VALID,124,VALID,2.00586,
2009-09-24, 03:06:04,VALID,1003.26,VALID,0,VALID,84.1084,VALID,0,VALID,27.0142,VALID,139,VALID,1.61523,
2009-09-24, 03:07:04,VALID,1003.25,VALID,0,VALID,84.1847,VALID,0,VALID,26.9926,VALID,125,VALID,1.24063,
2009-09-24, 03:08:04,VALID,1003.27,VALID,0,VALID,84.2534,VALID,0,VALID,26.9732,VALID,131,VALID,1.59844,
2009-09-24, 03:09:04,VALID,1003.25,VALID,0,VALID,84.2305,VALID,0,VALID,26.9732,VALID,115,VALID,2.30195,
2009-09-24, 03:10:04,VALID,1003.24,VALID,0,VALID,84.383,VALID,0,VALID,26.9947,VALID,132,VALID,0.899609,
2009-09-24, 03:11:04,VALID,1003.22,VALID,0,VALID,84.4364,VALID,0,VALID,27.0142,VALID,128,VALID,2.48867,
2009-09-24, 03:12:04,VALID,1003.23,VALID,0,VALID,84.4593,VALID,0,VALID,26.9732,VALID,149,VALID,1.31602,
2009-09-24, 03:13:04,VALID,1003.22,VALID,0,VALID,84.4288,VALID,0,VALID,26.9752,VALID,135,VALID,2.17539,
2009-09-24, 03:14:04,VALID,1003.23,VALID,0,VALID,84.2915,VALID,0,VALID,26.9947,VALID,117,VALID,2.62266,
2009-09-24, 03:15:04,VALID,1003.23,VALID,0,VALID,84.2839,VALID,0,VALID,27.0142,VALID,133,VALID,2.60156,
2009-09-24, 03:16:04,VALID,1003.23,VALID,0,VALID,84.3602,VALID,0,VALID,26.9926,VALID,125,VALID,1.59766,
2009-09-24, 03:17:04,VALID,1003.22,VALID,0,VALID,84.3907,VALID,0,VALID,26.9967,VALID,98,VALID,1.71992,
2009-09-24, 03:18:04,VALID,1003.23,VALID,0,VALID,84.2228,VALID,0,VALID,26.9752,VALID,121,VALID,1.92305,
2009-09-24, 03:19:04,VALID,1003.23,VALID,0,VALID,84.1313,VALID,0,VALID,26.9752,VALID,117,VALID,1.71094,
2009-09-24, 03:20:04,VALID,1003.23,VALID,0,VALID,84.2305,VALID,0,VALID,26.9557,VALID,130,VALID,1.39258,
2009-09-24, 03:21:04,VALID,1003.24,VALID,0,VALID,84.2228,VALID,0,VALID,26.9362,VALID,123,VALID,1.63477,
2009-09-24, 03:22:04,VALID,1003.25,VALID,0,VALID,84.261,VALID,0,VALID,26.9557,VALID,112,VALID,1.39219,
2009-09-24, 03:23:04,VALID,1003.24,VALID,0,VALID,84.2,VALID,0,VALID,26.9578,VALID,126,VALID,2.27344,
2009-09-24, 03:24:04,VALID,1003.23,VALID,0,VALID,84.2915,VALID,0,VALID,26.9362,VALID,116,VALID,1.78242,
2009-09-24, 03:25:04,VALID,1003.24,VALID,0,VALID,84.4136,VALID,0,VALID,26.9167,VALID,115,VALID,1.75937,
2009-09-24, 03:26:04,VALID,1003.22,VALID,0,VALID,84.6577,VALID,0,VALID,26.8563,VALID,165,VALID,1.19023,
2009-09-24, 03:27:04,VALID,1003.23,VALID,0,VALID,84.5127,VALID,0,VALID,26.8778,VALID,135,VALID,2.7875,
2009-09-24, 03:28:04,VALID,1003.25,VALID,0,VALID,84.4593,VALID,0,VALID,26.8973,VALID,115,VALID,1.83008,
2009-09-24, 03:29:04,VALID,1003.28,VALID,0,VALID,84.5661,VALID,0,VALID,26.8778,VALID,128,VALID,1.40703,
2009-09-24, 03:30:04,VALID,1003.27,VALID,0,VALID,84.4899,VALID,0,VALID,26.8778,VALID,137,VALID,1.67813,
2009-09-24, 03:31:04,VALID,1003.3,VALID,0,VALID,84.7111,VALID,0,VALID,26.8583,VALID,124,VALID,1.66055,
2009-09-24, 03:32:04,VALID,1003.31,VALID,0,VALID,84.7645,VALID,0,VALID,26.7978,VALID,111,VALID,1.16523,
2009-09-24, 03:33:04,VALID,1003.34,VALID,0,VALID,84.6043,VALID,0,VALID,26.8193,VALID,152,VALID,1.78828,
2009-09-24, 03:34:04,VALID,1003.32,VALID,0,VALID,84.6577,VALID,0,VALID,26.8193,VALID,126,VALID,2.40625,
2009-09-24, 03:35:04,VALID,1003.37,VALID,0,VALID,84.5356,VALID,0,VALID,26.7998,VALID,122,VALID,2.23398,
2009-09-24, 03:36:04,VALID,1003.38,VALID,0,VALID,84.4517,VALID,0,VALID,26.7978,VALID,129,VALID,2.11719,
2009-09-24, 03:37:04,VALID,1003.39,VALID,0,VALID,84.383,VALID,0,VALID,26.7998,VALID,117,VALID,1.82852,
2009-09-24, 03:38:04,VALID,1003.4,VALID,0,VALID,84.1084,VALID,0,VALID,26.8388,VALID,110,VALID,2.39531,
2009-09-24, 03:39:04,VALID,1003.42,VALID,0,VALID,84.2076,VALID,0,VALID,26.8173,VALID,134,VALID,1.98672,
2009-09-24, 03:40:04,VALID,1003.39,VALID,0,VALID,84.2,VALID,0,VALID,26.8193,VALID,132,VALID,1.40234,
2009-09-24, 03:41:04,VALID,1003.4,VALID,0,VALID,84.2076,VALID,0,VALID,26.7998,VALID,129,VALID,2.09727,
2009-09-24, 03:42:04,VALID,1003.39,VALID,0,VALID,84.2076,VALID,0,VALID,26.8214,VALID,109,VALID,1.67383,
2009-09-24, 03:43:04,VALID,1003.41,VALID,0,VALID,84.3296,VALID,0,VALID,26.7998,VALID,124,VALID,1.52227,
2009-09-24, 03:44:04,VALID,1003.41,VALID,0,VALID,84.4517,VALID,0,VALID,26.7609,VALID,97,VALID,1.21172,
2009-09-24, 03:45:04,VALID,1003.41,VALID,0,VALID,84.5661,VALID,0,VALID,26.7004,VALID,128,VALID,1.68477,